TimeCST,TemperatureF,Dew PointF,Humidity,Sea Level PressureIn,VisibilityMPH,Wind Direction,Wind SpeedMPH,Gust SpeedMPH,PrecipitationIn,Events,Conditions,WindDirDegrees,DateUTC
12:15 AM,33.8,19.4,56,30.23,10.0,NNW,5.8,-,N/A,,Clear,330,2013-02-20 06:15:00
12:35 AM,33.8,19.4,56,30.23,10.0,Calm,Calm,-,N/A,,Clear,0,2013-02-20 06:35:00
12:55 AM,30.2,23.0,75,30.23,10.0,Calm,Calm,-,N/A,,Clear,0,2013-02-20 06:55:00
1:15 AM,30.2,21.2,69,30.23,10.0,Calm,Calm,-,N/A,,Clear,0,2013-02-20 07:15:00
1:35 AM,30.2,21.2,69,30.23,10.0,Calm,Calm,-,N/A,,Clear,0,2013-02-20 07:35:00
1:55 AM,30.2,21.2,69,30.21,10.0,Calm,Calm,-,N/A,,Clear,0,2013-02-20 07:55:00
2:15 AM,28.4,21.2,74,30.21,10.0,Calm,Calm,-,N/A,,Clear,0,2013-02-20 08:15:00
2:35 AM,28.4,21.2,74,30.21,10.0,Calm,Calm,-,N/A,,Clear,0,2013-02-20 08:35:00
2:55 AM,28.4,21.2,74,30.20,10.0,Calm,Calm,-,N/A,,Clear,0,2013-02-20 08:55:00
3:15 AM,28.4,21.2,74,30.20,10.0,Calm,Calm,-,N/A,,Clear,0,2013-02-20 09:15:00
3:35 AM,28.4,21.2,74,30.19,10.0,Calm,Calm,-,N/A,,Clear,0,2013-02-20 09:35:00
3:55 AM,28.4,21.2,74,30.20,10.0,Calm,Calm,-,N/A,,Clear,0,2013-02-20 09:55:00
4:15 AM,26.6,21.2,80,30.20,10.0,Calm,Calm,-,N/A,,Clear,0,2013-02-20 10:15:00
4:35 AM,26.6,21.2,80,30.21,10.0,Calm,Calm,-,N/A,,Clear,0,2013-02-20 10:35:00
4:55 AM,26.6,21.2,80,30.22,10.0,Calm,Calm,-,N/A,,Clear,0,2013-02-20 10:55:00
5:15 AM,26.6,21.2,80,30.23,10.0,Calm,Calm,-,N/A,,Clear,0,2013-02-20 11:15:00
5:35 AM,24.8,19.4,80,30.23,10.0,Calm,Calm,-,N/A,,Clear,0,2013-02-20 11:35:00
5:55 AM,26.6,21.2,80,30.23,10.0,Calm,Calm,-,N/A,,Clear,0,2013-02-20 11:55:00
6:15 AM,24.8,21.2,86,30.24,10.0,Calm,Calm,-,N/A,,Clear,0,2013-02-20 12:15:00
6:35 AM,24.8,21.2,86,30.26,10.0,West,3.5,-,N/A,,Clear,270,2013-02-20 12:35:00
6:55 AM,26.6,21.2,80,30.25,10.0,Calm,Calm,-,N/A,,Clear,0,2013-02-20 12:55:00
7:15 AM,28.4,24.8,86,30.24,10.0,Calm,Calm,-,N/A,,Clear,0,2013-02-20 13:15:00
7:35 AM,30.2,26.6,86,30.25,10.0,Calm,Calm,-,N/A,,Clear,0,2013-02-20 13:35:00
7:55 AM,35.6,23.0,60,30.26,10.0,NNW,6.9,-,N/A,,Clear,330,2013-02-20 13:55:00
8:15 AM,37.4,23.0,56,30.27,10.0,North,6.9,-,N/A,,Clear,350,2013-02-20 14:15:00
8:35 AM,37.4,23.0,56,30.25,10.0,NNE,9.2,-,N/A,,Clear,30,2013-02-20 14:35:00
8:55 AM,39.2,19.4,45,30.25,10.0,NNE,12.7,-,N/A,,Clear,30,2013-02-20 14:55:00
9:15 AM,41.0,19.4,42,30.25,10.0,NNE,9.2,-,N/A,,Clear,30,2013-02-20 15:15:00
9:35 AM,42.8,19.4,39,30.26,10.0,NE,8.1,-,N/A,,Clear,50,2013-02-20 15:35:00
9:55 AM,41.0,17.6,39,30.25,10.0,NNE,9.2,-,N/A,,Clear,30,2013-02-20 15:55:00
10:15 AM,44.6,17.6,34,30.26,10.0,NNW,8.1,-,N/A,,Clear,330,2013-02-20 16:15:00
10:35 AM,42.8,15.8,34,30.26,10.0,North,6.9,-,N/A,,Clear,350,2013-02-20 16:35:00
10:55 AM,44.6,15.8,31,30.26,10.0,NNW,5.8,-,N/A,,Clear,330,2013-02-20 16:55:00
11:15 AM,44.6,15.8,31,30.25,10.0,NNW,8.1,-,N/A,,Clear,330,2013-02-20 17:15:00
11:35 AM,44.6,12.2,27,30.25,10.0,North,10.4,-,N/A,,Clear,360,2013-02-20 17:35:00
11:55 AM,46.4,15.8,29,30.24,10.0,North,5.8,-,N/A,,Clear,10,2013-02-20 17:55:00
12:15 PM,46.4,14.0,27,30.23,10.0,NNW,5.8,-,N/A,,Clear,340,2013-02-20 18:15:00
12:35 PM,46.4,15.8,29,30.23,10.0,NNW,4.6,-,N/A,,Clear,330,2013-02-20 18:35:00
12:55 PM,46.4,15.8,29,30.21,10.0,NW,6.9,-,N/A,,Clear,310,2013-02-20 18:55:00
1:15 PM,46.4,12.2,25,30.22,10.0,NW,6.9,-,N/A,,Clear,320,2013-02-20 19:15:00
1:35 PM,44.6,14.0,29,30.23,10.0,NNW,8.1,-,N/A,,Partly Cloudy,330,2013-02-20 19:35:00
2:55 PM,42.8,17.6,36,30.25,10.0,West,5.8,-,N/A,,Mostly Cloudy,280,2013-02-20 20:55:00
3:15 PM,42.8,19.4,39,30.24,10.0,NW,5.8,-,N/A,,Mostly Cloudy,320,2013-02-20 21:15:00
3:35 PM,42.8,19.4,39,30.23,10.0,North,6.9,-,N/A,,Mostly Cloudy,350,2013-02-20 21:35:00
3:55 PM,41.0,24.8,53,30.20,10.0,North,3.5,-,N/A,,Partly Cloudy,360,2013-02-20 21:55:00
4:15 PM,41.0,26.6,57,30.18,10.0,NNE,6.9,-,N/A,,Clear,20,2013-02-20 22:15:00
4:35 PM,41.0,26.6,57,30.14,10.0,NE,10.4,-,N/A,,Clear,40,2013-02-20 22:35:00
4:55 PM,41.0,24.8,53,30.16,10.0,North,6.9,-,N/A,,Partly Cloudy,10,2013-02-20 22:55:00
5:15 PM,41.0,23.0,49,30.16,10.0,NNE,5.8,-,N/A,,Scattered Clouds,20,2013-02-20 23:15:00
5:35 PM,41.0,24.8,53,30.16,10.0,NNE,6.9,-,N/A,,Overcast,30,2013-02-20 23:35:00
5:55 PM,39.2,24.8,56,30.16,10.0,Calm,Calm,-,N/A,,Scattered Clouds,0,2013-02-20 23:55:00
6:15 PM,37.4,26.6,65,30.18,10.0,WNW,4.6,-,N/A,,Clear,290,2013-02-21 00:15:00
6:35 PM,37.4,28.4,70,30.17,10.0,West,3.5,-,N/A,,Clear,280,2013-02-21 00:35:00
6:55 PM,39.2,26.6,61,30.17,10.0,WSW,3.5,-,N/A,,Clear,240,2013-02-21 00:55:00
7:15 PM,37.4,28.4,70,30.18,10.0,West,4.6,-,N/A,,Clear,260,2013-02-21 01:15:00
7:35 PM,39.2,26.6,61,30.18,10.0,WNW,3.5,-,N/A,,Clear,300,2013-02-21 01:35:00
7:56 PM,39.2,24.8,56,30.18,10.0,Calm,Calm,-,N/A,,Scattered Clouds,0,2013-02-21 01:56:00
8:15 PM,39.2,23.0,52,30.18,10.0,Calm,Calm,-,N/A,,Mostly Cloudy,0,2013-02-21 02:15:00
8:35 PM,39.2,23.0,52,30.18,10.0,North,4.6,-,N/A,,Scattered Clouds,350,2013-02-21 02:35:00
8:55 PM,39.2,21.2,49,30.19,10.0,NNW,3.5,-,N/A,,Overcast,340,2013-02-21 02:55:00
9:15 PM,39.2,21.2,49,30.19,10.0,Calm,Calm,-,N/A,,Mostly Cloudy,0,2013-02-21 03:15:00
9:35 PM,37.4,21.2,52,30.20,10.0,NW,3.5,-,N/A,,Mostly Cloudy,320,2013-02-21 03:35:00
9:55 PM,39.2,21.2,49,30.19,10.0,NNW,3.5,-,N/A,,Overcast,340,2013-02-21 03:55:00
10:15 PM,39.2,21.2,49,30.18,10.0,Calm,Calm,-,N/A,,Overcast,0,2013-02-21 04:15:00
10:35 PM,39.2,21.2,49,30.18,10.0,Calm,Calm,-,N/A,,Overcast,0,2013-02-21 04:35:00
10:55 PM,39.2,19.4,45,30.18,10.0,North,5.8,-,N/A,,Overcast,350,2013-02-21 04:55:00
11:15 PM,39.2,19.4,45,30.18,10.0,Calm,Calm,-,N/A,,Overcast,0,2013-02-21 05:15:00
11:35 PM,39.2,19.4,45,30.17,10.0,Calm,Calm,-,N/A,,Overcast,0,2013-02-21 05:35:00
11:55 PM,39.2,19.4,45,30.17,10.0,North,4.6,-,N/A,,Overcast,360,2013-02-21 05:55:00